Regional Weather Roundup
Issued by NWS

Home | Current Version | Previous Version | Text Only | Print | Product List | Glossary Off
Versions: 1 2 3 4 5 6 7 8 9 10 11 12 13 14 15 16 17 18 19 20 21 22 23 24 25 26 27 28 29 30 31 32 33 34 35 36 37 38 39 40 41 42 43 44 45 46 47 48 49 50

000
ASUS45 KCYS 041010
RWRWY

WYOMING REGIONAL WEATHER ROUNDUP
NATIONAL WEATHER SERVICE CHEYENNE WY
400 AM MDT MON MAY 04 2015

NOTE:  "FAIR" INDICATES FEW OR NO CLOUDS BELOW 12,000 FEET
WITH NO SIGNIFICANT WEATHER AND/OR OBSTRUCTIONS TO VISIBILITY.

WYZ001-041100-
YELLOWSTONE NATIONAL PARK

CITY           SKY/WX    TMP DP  RH WIND       PRES   REMARKS
LK YELLOWSTONE   N/A     28  26  92 CALM      30.12R
W YELLOWSTONE  NOT AVBL

$$
WYZ002>013-054>058-071-098>099-041100-
NORTHERN WYOMING

CITY           SKY/WX    TMP DP  RH WIND       PRES   REMARKS
JACKSON        FAIR      34  34 100 N6        30.08R WCI  29
CODY           FAIR      45  39  81 SW5       30.01S
GREYBULL       MOCLDY    53  39  59 E3        29.98S
WORLAND        FAIR      49  42  77 SE10      29.98S
SHERIDAN       FAIR      50  43  77 SE14G24   29.99S
BUFFALO        CLOUDY    49  42  77 SE15      30.06S
GILLETTE       CLOUDY    49  44  83 SE18      30.06R
HULETT         RAIN      46  43  87 S5        30.09R
NEWCASTLE      DRIZZLE   46  45  93 E10       30.10S

$$
WYZ014>020-022>026-101>103-041100-
CENTRAL WYOMING

CITY           SKY/WX    TMP DP  RH WIND       PRES   REMARKS
BIG PINEY      FAIR      33  31  92 NE8       30.08F WCI  26
PINEDALE       FAIR      32  32 100 W5        30.11R WCI  27
DUBOIS         FAIR      34  32  93 NW9       30.08S WCI  26
LANDER         FAIR      45  39  79 CALM      30.02F
RIVERTON       MOCLDY    47  40  76 CALM      30.04S
CASPER         FOG       41  39  93 CALM      30.05S VSB 1/2
DOUGLAS        MOCLDY    48  43  82 SE13      30.07R

$$
WYZ021-027>030-104>119-041100-
SOUTHERN WYOMING

CITY           SKY/WX    TMP DP  RH WIND       PRES   REMARKS
EVANSTON       FAIR      43  37  79 E8        30.07S
KEMMERER       FAIR      36  34  93 N9        30.08S WCI  29
FORT BRIDGER   SUNNY     39  39 100 S3        30.10F
ROCK SPRINGS   FAIR      44  36  73 CALM      30.06F
DIXON          FAIR      44  40  88 NE3       30.08F
RAWLINS        MOCLDY    40  38  93 NE3       30.07S
SARATOGA       FAIR      37  34  87 CALM      30.08S
LARAMIE        MOCLDY    43  39  86 SE21      30.08F
CHEYENNE       CLOUDY    45  39  79 SE15      30.10F
TORRINGTON     CLOUDY    49  40  71 SE6       30.08S
PINE BLUFFS    FAIR      45  37  76 SE5       30.11R

$$



USA.gov is the U.S. government's official web portal to all federal, state and local government web resources and services.